GW3474 Weather Reports


time (UTC)temp
C
wind
direction
speed
KPH
gust
KPH
rain 1hr
cm
rain 24hr
cm
rain mn
cm
humidity
%
barometer
mb
20260509054516 13 0.0 0.0 0.00 0.00 0.00 56 1015.0
20260509053536 13 0.0 0.0 0.00 0.00 0.00 58 1014.9
20260509052516 13 0.0 0.0 0.00 0.00 0.00 58 1014.8
20260509051516 13 0.0 0.0 0.00 0.00 0.00 59 1014.6
20260509050516 13 0.0 0.0 0.00 0.00 0.00 58 1014.7
20260509045515 14 0.0 0.0 0.00 0.00 0.00 55 1014.6
20260509044516 14 0.0 0.0 0.00 0.00 0.00 55 1014.4
20260509043515 14 0.0 0.0 0.00 0.00 0.00 56 1014.3
20260509042516 15 0.0 0.0 0.00 0.00 0.00 53 1014.3
20260509041516 16 0.0 0.0 0.00 0.00 0.00 50 1014.3
20260509040516 15 0.0 0.0 0.00 0.00 0.00 52 1014.1
20260509035515 15 0.0 0.0 0.00 0.00 0.00 52 1013.9
20260509034515 16 0.0 0.0 0.00 0.00 0.00 50 1013.9
20260509033515 17 0.0 0.0 0.00 0.00 0.00 46 1014.0
20260509032515 18 0.0 0.0 0.00 0.00 0.00 43 1013.9
20260509031516 18 0.0 0.0 0.00 0.00 0.00 42 1013.7
20260509030515 17 0.0 0.0 0.00 0.00 0.00 43 1013.7
20260509025515 18 0.0 0.0 0.00 0.00 0.00 43 1013.7
20260509024537 17 0.0 0.0 0.00 0.00 0.00 44 1013.3
20260509023515 18 0.0 0.0 0.00 0.00 0.00 43 1013.5
20260509022515 18 0.0 0.0 0.00 0.00 0.00 43 1013.4
20260509021516 18 0.0 0.0 0.00 0.00 0.00 41 1013.4
20260509020515 19 0.0 0.0 0.00 0.00 0.00 40 1013.4
20260509015515 20 0.0 0.0 0.00 0.00 0.00 39 1013.2
20260509014515 20 0.0 0.0 0.00 0.00 0.00 39 1013.0
20260509013536 20 0.0 0.0 0.00 0.00 0.00 39 1012.8
20260509012556 20 0.0 0.0 0.00 0.00 0.00 38 1012.8
20260509011516 21 0.0 0.0 0.00 0.00 0.00 36 1012.7
20260509010516 21 0.0 0.0 0.00 0.00 0.00 35 1012.8
20260509005516 22 0.0 0.0 0.00 0.00 0.00 33 1012.8
20260509004515 22 0.0 0.0 0.00 0.00 0.00 32 1012.8
20260509003515 22 0.0 0.0 0.00 0.00 0.00 32 1012.8
20260509002516 22 0.0 0.0 0.00 0.00 0.00 31 1012.8
20260509001515 23 0.0 0.0 0.00 0.00 0.00 31 1012.9
20260509000517 23 0.0 0.0 0.00 0.00 0.00 30 1013.0
20260508235515 23 0.0 0.0 0.00 0.00 0.00 30 1012.9
20260508234536 23 0.0 0.0 0.00 0.00 0.00 30 1012.9
20260508233516 23 0.0 0.0 0.00 0.00 0.00 30 1012.7
20260508232515 23 0.0 0.0 0.00 0.00 0.00 29 1012.8
20260508231515 24 0.0 0.0 0.00 0.00 0.00 29 1012.7
20260508230515 24 0.0 0.0 0.00 0.00 0.00 29 1012.6
20260508225516 24 0.0 0.0 0.00 0.00 0.00 28 1012.5
20260508224536 24 0.0 0.0 0.00 0.00 0.00 30 1012.4
20260508223515 24 0.0 0.0 0.00 0.00 0.00 31 1012.3
20260508222516 24 0.0 0.0 0.00 0.00 0.00 31 1012.1
20260508221515 24 0.0 0.0 0.00 0.00 0.00 30 1012.3
20260508220517 25 0.0 0.0 0.00 0.00 0.00 30 1012.3
20260508215515 24 0.0 0.0 0.00 0.00 0.00 31 1012.3
20260508214515 24 0.0 0.0 0.00 0.00 0.00 30 1012.5
20260508213556 25 0.0 0.0 0.00 0.00 0.00 30 1012.5
20260508212537 25 0.0 0.0 0.00 0.00 0.00 31 1012.6
20260508211516 25 0.0 0.0 0.00 0.00 0.00 31 1012.6
20260508210536 25 0.0 0.0 0.00 0.00 0.00 30 1012.7
20260508205515 25 0.0 0.0 0.00 0.00 0.00 30 1012.7
20260508204516 25 0.0 0.0 0.00 0.00 0.00 30 1012.7
20260508203515 25 0.0 0.0 0.00 0.00 0.00 30 1012.7
20260508202516 25 0.0 0.0 0.00 0.00 0.00 31 1012.7
20260508201536 25 0.0 0.0 0.00 0.00 0.00 30 1012.8
20260508200516 25 0.0 0.0 0.00 0.00 0.00 31 1012.9
20260508195515 25 0.0 0.0 0.00 0.00 0.00 32 1012.9
20260508194516 25 0.0 0.0 0.00 0.00 0.00 31 1013.0
20260508193516 25 0.0 0.0 0.00 0.00 0.00 31 1013.1
20260508192515 25 0.0 0.0 0.00 0.00 0.00 32 1013.0
20260508191515 25 0.0 0.0 0.00 0.00 0.00 33 1012.9
20260508190517 24 0.0 0.0 0.00 0.00 0.00 34 1013.1
20260508185516 23 0.0 0.0 0.00 0.00 0.00 35 1013.0
20260508184515 23 0.0 0.0 0.00 0.00 0.00 35 1013.2
20260508183516 23 0.0 0.0 0.00 0.00 0.00 34 1013.1
20260508182516 23 0.0 0.0 0.00 0.00 0.00 34 1013.2
20260508181516 23 0.0 0.0 0.00 0.00 0.00 36 1013.3
20260508180516 22 0.0 0.0 0.00 0.00 0.00 38 1013.2
20260508175515 22 0.0 0.0 0.00 0.00 0.00 38 1013.2
20260508174515 22 0.0 0.0 0.00 0.00 0.00 37 1013.3
20260508173516 22 0.0 0.0 0.00 0.00 0.00 38 1013.2
20260508172516 23 0.0 0.0 0.00 0.00 0.00 39 1013.4
20260508171515 22 0.0 0.0 0.00 0.00 0.00 40 1013.3
20260508170516 22 0.0 0.0 0.00 0.00 0.00 42 1013.6
20260508165515 21 0.0 0.0 0.00 0.00 0.00 42 1013.7
20260508164516 21 0.0 0.0 0.00 0.00 0.00 42 1013.9
20260508163516 21 0.0 0.0 0.00 0.00 0.00 46 1013.9
20260508162516 20 0.0 0.0 0.00 0.00 0.00 46 1014.1
20260508161516 20 0.0 0.0 0.00 0.00 0.00 48 1014.0
20260508160516 20 0.0 0.0 0.00 0.00 0.00 48 1014.0
20260508155515 19 0.0 0.0 0.00 0.00 0.00 49 1013.9
20260508154515 19 0.0 0.0 0.00 0.00 0.00 49 1013.8
20260508153516 18 0.0 0.0 0.00 0.00 0.00 49 1013.6
20260508152516 18 0.0 0.0 0.00 0.00 0.00 51 1013.6
20260508151516 17 0.0 0.0 0.00 0.00 0.00 55 1013.6
20260508150515 17 0.0 0.0 0.00 0.00 0.00 56 1013.4
20260508145536 17 0.0 0.0 0.00 0.00 0.00 57 1013.4
20260508144515 16 0.0 0.0 0.00 0.00 0.00 59 1013.3
20260508143515 16 0.0 0.0 0.00 0.00 0.00 61 1013.2
20260508142515 16 0.0 0.0 0.00 0.00 0.00 62 1013.3
20260508141515 15 0.0 0.0 0.00 0.00 0.00 65 1013.3
20260508140516 15 0.0 0.0 0.00 0.00 0.00 66 1013.2
20260508135517 14 0.0 0.0 0.00 0.00 0.00 68 1013.1
20260508134515 13 0.0 0.0 0.00 0.00 0.00 70 1013.0
20260508133515 13 0.0 0.0 0.00 0.00 0.00 72 1013.0
20260508132515 12 0.0 0.0 0.00 0.00 0.00 75 1013.0
20260508131516 12 0.0 0.0 0.00 0.00 0.00 76 1012.9
20260508130515 11 0.0 0.0 0.00 0.00 0.00 78 1012.8
20260508125516 11 0.0 0.0 0.00 0.00 0.00 79 1012.8
20260508124536 11 0.0 0.0 0.00 0.00 0.00 79 1012.9
20260508123516 11 0.0 0.0 0.00 0.00 0.00 79 1012.7
20260508122515 11 0.0 0.0 0.00 0.00 0.00 79 1012.7
20260508121516 11 0.0 0.0 0.00 0.00 0.00 79 1012.9
20260508120516 11 0.0 0.0 0.00 0.00 0.00 79 1013.2
20260508115516 11 0.0 0.0 0.00 0.00 0.00 79 1013.3
20260508114535 11 0.0 0.0 0.00 0.00 0.00 79 1013.3
20260508113515 11 0.0 0.0 0.00 0.00 0.00 80 1013.3
20260508112515 11 0.0 0.0 0.00 0.00 0.00 79 1013.6
20260508111516 11 0.0 0.0 0.00 0.00 0.00 79 1013.3
20260508110516 11 0.0 0.0 0.00 0.00 0.00 77 1013.1
20260508105515 11 0.0 0.0 0.00 0.00 0.00 78 1012.6
20260508104516 11 0.0 0.0 0.00 0.00 0.00 77 1012.6
20260508103515 11 0.0 0.0 0.00 0.00 0.00 77 1012.6
20260508102516 11 0.0 0.0 0.00 0.00 0.00 78 1012.6
20260508101516 11 0.0 0.0 0.00 0.00 0.00 76 1012.4
20260508100536 11 0.0 0.0 0.00 0.00 0.00 74 1012.6
20260508095517 11 0.0 0.0 0.00 0.00 0.00 73 1012.6
20260508094515 12 0.0 0.0 0.00 0.00 0.00 71 1012.6
20260508093516 12 0.0 0.0 0.00 0.00 0.00 69 1012.6
20260508092517 12 0.0 0.0 0.00 0.00 0.00 69 1012.7
20260508091516 12 0.0 0.0 0.00 0.00 0.00 69 1012.6
20260508090516 12 0.0 0.0 0.00 0.00 0.00 67 1012.8
20260508085515 12 0.0 0.0 0.00 0.00 0.00 66 1012.9
20260508084516 12 0.0 0.0 0.00 0.00 0.00 65 1012.8
20260508083515 12 0.0 0.0 0.00 0.00 0.00 64 1012.9
20260508082556 12 0.0 0.0 0.00 0.00 0.00 63 1012.9
20260508081516 12 0.0 0.0 0.00 0.00 0.00 62 1012.9
20260508080517 13 0.0 0.0 0.00 0.00 0.00 61 1013.0
20260508075515 13 0.0 0.0 0.00 0.00 0.00 59 1013.1
20260508074536 13 0.0 0.0 0.00 0.00 0.00 58 1013.1
20260508073536 13 0.0 0.0 0.00 0.00 0.00 57 1013.2
20260508072536 13 0.0 0.0 0.00 0.00 0.00 57 1013.3
20260508071516 13 0.0 0.0 0.00 0.00 0.00 56 1013.5
20260508070556 13 0.0 0.0 0.00 0.00 0.00 56 1013.5
20260508065556 13 0.0 0.0 0.00 0.00 0.00 57 1013.5
20260508064515 12 0.0 0.0 0.00 0.00 0.00 59 1013.4
20260508063516 12 0.0 0.0 0.00 0.00 0.00 60 1013.3
20260508062515 12 0.0 0.0 0.00 0.00 0.00 59 1013.4
20260508061536 13 0.0 0.0 0.00 0.00 0.00 58 1013.3
20260508060515 13 0.0 0.0 0.00 0.00 0.00 59 1013.3
20260508055515 13 0.0 0.0 0.00 0.00 0.00 57 1013.2